Location: Asbacherhof
(48.8543°N, 10.7903°E)
Time: 21:33:19
(UTC+00:00)

Nadezhda 1 Rocket - Pass Details

Date: 26 May 2022
Orbit: 940 x 1006 km, 83.0° (Epoch: 29 June)

Event Time Altitude Azimuth Distance (km) Brightness Sun altitude
Exits shadow 02:15:04 10° 208° (SSW) 2,748 5.7 -9.2°
Maximum altitude 02:21:12 53° 284° (WNW) 1,204 4.3 -8.6°
Drops below altitude 10° 02:27:22 10° 2° (N) 2,744 7.1 -7.9°
Sets 02:29:57 0° 7° (N) 3,685 7.9 -7.5°
